Probability
0 6 97 90 87 87 81 77 81 87 87 90 94 94 74 48 35 26 13 6 13 19 26 16 3 6 3 3 0 0 0 0 0 0 0 0 0 0 0 0 0 0 0
0 6 100 97 87 87 84 74 77 81 87 87 94 77 68 35 32 16 10 6 16 23 19 10 3 6 6 0 0 0 0 0 0 0 0 0 0 0 0 0 0 0 0
0 10 97 97 90 87 87 74 77 77 90 84 81 77 61 35 29 19 10 10 19 23 19 10 6 3 3 0 0 0 0 0 0 0 0 0 0 0 0 0 0 0 0
0 6 81 97 94 90 87 77 74 81 81 87 77 74 55 39 32 19 19 10 13 26 19 6 3 3 3 0 0 0 0 0 0 0 0 0 0 0 0 0 0 0 0
0 6 55 100 94 90 87 81 81 81 81 87 77 71 55 48 35 26 19 26 39 32 10 3 3 0 0 0 0 0 0 0 0 0 0 0 0 0 0 0 0 0 0
0 6 39 97 94 90 90 81 77 71 74 77 84 74 65 48 39 29 29 39 35 23 6 3 0 0 0 0 0 0 0 0 0 0 0 0 0 0 0 0 0 0 0
0 3 32 94 90 90 90 87 74 74 74 84 81 77 68 42 35 32 35 29 23 6 3 3 0 0 0 0 0 0 0 0 0 0 0 0 0 0 0 0 0 0 0
0 3 26 81 81 87 87 81 68 77 77 87 84 81 68 58 42 29 29 16 13 0 3 0 0 0 0 0 0 0 0 0 0 0 0 0 0 0 0 0 0 0 0
0 0 10 35 48 58 55 55 58 74 77 81 87 84 71 65 52 39 29 13 13 6 3 3 0 0 0 0 0 0 0 0 0 0 0 0 0 0 0 0 0 0 0
0 0 6 13 10 10 10 32 26 32 52 65 61 42 19 19 29 32 10 6 10 3 0 3 0 0 0 0 0 0 0 0 0 0 0 0 0 0 0 0 0 0 0
3 0 0 3 0 0 3 10 3 13 16 23 26 10 0 0 0 0 0 0 0 3 0 0 0 0 0 0 0 0 0 0 0 0 0 0 0 0 0 0 0 0 0
3 0 0 0 0 0 0 0 0 0 0 0 0 0 0 0 0 0 0 0 0 0 0 0 0 0 0 0 0 0 0 0 0 0 0 0 0 0 0 0 0 0 0
0 0 0 0 0 0 0 0 0 0 0 0 0 0 0 0 0 0 0 0 0 0 0 0 0 0 0 0 0 0 0 0 0 0 0 0 0 0 0 0 0 0 0
0 0 0 0 0 0 0 0 0 0 0 0 0 0 0 0 0 0 0 0 0 0 0 0 0 0 0 0 0 0 0 0 0 0 0 0 0 0 0 0 0 0 0
0 0 0 0 0 0 0 0 0 0 0 0 0 0 0 0 0 0 0 0 0 0 0 0 0 0 0 0 0 0 0 0 0 0 0 0 0 0 0 0 0 0 0
0 0 0 0 0 0 0 0 0 0 0 0 0 0 0 0 0 0 0 0 0 0 0 0 0 0 0 0 0 0 0 0 0 0 0 0 0 0 0 0 0 0 0
0 0 0 0 0 0 0 0 0 0 0 0 0 0 0 0 0 0 0 0 0 0 0 0 0 0 0 0 0 0 0 0 0 0 0 0 0 0 0 0 0 0 0
0 0 0 0 0 0 0 0 0 0 0 0 0 0 0 0 0 0 0 0 0 0 0 0 0 0 0 0 0 0 0 0 0 0 0 0 0 0 0 0 0 0 0
0 0 0 0 0 0 0 0 0 0 0 0 0 0 0 0 0 0 0 0 0 0 0 0 0 0 0 0 0 0 0 0 0 0 0 0 0 0 0 0 0 0 0
0 0 0 0 0 0 0 0 0 0 0 0 0 0 0 0 0 0 0 0 0 0 0 0 0 0 0 0 0 0 0 0 0 0 0 0 0 0 0 0 0 0 0
0 0 0 0 0 0 0 0 0 0 0 0 0 0 0 0 0 0 0 0 0 0 0 0 0 0 0 0 0 0 0 0 0 0 0 0 0 0 0 0 0 0 0
0 0 0 0 0 0 0 0 0 0 0 0 0 0 0 0 0 0 0 0 0 0 0 0 0 0 0 0 0 0 0 0 0 0 0 0 0 0 0 0 0 0 0
0 0 0 0 0 0 0 0 0 0 0 0 0 0 0 0 0 0 0 0 0 0 0 0 0 0 0 0 0 0 0 0 0 0 0 0 0 0 0 0 0 0 0
0 0 0 0 0 0 0 0 0 0 0 0 0 0 0 0 0 0 0 0 0 0 0 0 0 0 0 0 0 0 0 0 0 0 0 0 0 0 0 0 0 0 0
0 0 0 0 0 0 0 0 0 0 0 0 0 0 0 0 0 0 0 0 0 0 0 0 0 0 0 0 0 0 0 0 0 0 0 0 0 0 0 0 0 0 0
0 0 0 0 0 0 0 0 0 0 0 0 0 0 0 0 0 0 0 0 0 0 0 0 0 0 0 0 0 0 0 0 0 0 0 0 0 0 0 0 0 0 0
Height
5852 5853 5854 5856 5857 5858 5860 5861 5863 5864 5866 5867 5868 5870 5871 5871 5872 5873 5874 5874 5875 5876 5876 5877 5877 5877 5877 5877 5877 5877 5877 5877 5877 5876 5876 5876 5876 5876 5876 5876 5875 5875 5874
5847 5849 5850 5852 5853 5854 5856 5857 5859 5860 5862 5864 5865 5866 5868 5869 5870 5871 5871 5872 5873 5874 5875 5875 5876 5876 5876 5876 5876 5876 5876 5876 5876 5875 5875 5875 5875 5875 5875 5875 5874 5874 5873
5843 5845 5846 5848 5849 5850 5851 5853 5854 5856 5858 5860 5861 5863 5864 5865 5867 5868 5869 5870 5871 5872 5873 5873 5874 5875 5875 5875 5875 5875 5875 5875 5874 5874 5874 5874 5874 5874 5874 5874 5873 5873 5872
5838 5840 5841 5843 5844 5846 5847 5848 5850 5851 5853 5855 5857 5859 5860 5862 5863 5864 5865 5867 5868 5869 5870 5871 5872 5872 5873 5873 5874 5873 5873 5873 5873 5873 5873 5873 5873 5873 5872 5872 5872 5871 5871
5832 5834 5836 5838 5839 5841 5842 5844 5845 5847 5848 5850 5852 5854 5856 5857 5859 5860 5862 5863 5865 5866 5867 5868 5869 5870 5870 5871 5872 5872 5872 5872 5872 5871 5871 5871 5871 5871 5871 5871 5870 5870 5869
5826 5828 5830 5832 5834 5835 5837 5839 5840 5841 5843 5845 5847 5849 5851 5852 5854 5856 5857 5859 5861 5862 5864 5865 5866 5867 5868 5868 5869 5870 5870 5870 5870 5870 5869 5869 5869 5869 5869 5869 5868 5868 5867
5819 5821 5823 5825 5827 5829 5831 5833 5834 5836 5838 5839 5841 5843 5845 5847 5849 5851 5853 5854 5856 5858 5860 5861 5863 5864 5864 5865 5866 5867 5867 5867 5867 5867 5867 5867 5867 5867 5867 5867 5866 5866 5865
5811 5814 5816 5818 5821 5822 5824 5826 5828 5830 5832 5833 5835 5837 5839 5841 5843 5845 5847 5849 5851 5854 5855 5857 5858 5860 5861 5862 5863 5863 5864 5864 5865 5865 5865 5865 5865 5864 5864 5864 5864 5863 5863
5803 5806 5808 5811 5813 5815 5817 5819 5821 5823 5825 5827 5829 5831 5833 5835 5837 5839 5841 5844 5846 5848 5850 5852 5854 5855 5857 5858 5859 5860 5860 5861 5862 5862 5862 5862 5862 5862 5861 5861 5861 5860 5860
5794 5797 5799 5802 5804 5807 5809 5811 5814 5816 5818 5820 5822 5824 5826 5828 5831 5833 5835 5838 5840 5843 5845 5847 5849 5850 5852 5853 5854 5855 5856 5857 5858 5858 5858 5859 5859 5858 5858 5858 5858 5857 5857
5784 5787 5790 5792 5795 5798 5800 5803 5805 5808 5810 5812 5814 5817 5819 5822 5824 5826 5829 5832 5834 5836 5839 5841 5843 5845 5847 5848 5849 5851 5852 5853 5853 5854 5854 5855 5855 5855 5855 5854 5854 5854 5853
5773 5776 5780 5783 5786 5789 5792 5794 5797 5799 5802 5805 5807 5809 5812 5814 5817 5820 5822 5825 5827 5830 5832 5835 5837 5839 5841 5842 5844 5845 5847 5848 5849 5849 5850 5850 5850 5850 5850 5850 5850 5850 5849
5762 5765 5769 5773 5776 5779 5782 5785 5788 5791 5794 5796 5799 5802 5804 5807 5810 5813 5815 5818 5821 5823 5826 5828 5831 5833 5835 5837 5838 5840 5841 5842 5843 5844 5845 5845 5845 5846 5846 5846 5846 5845 5845
5750 5754 5758 5761 5765 5768 5772 5775 5778 5782 5785 5788 5791 5793 5796 5799 5802 5805 5808 5811 5813 5816 5818 5821 5824 5826 5828 5830 5832 5834 5835 5837 5838 5838 5839 5840 5840 5841 5841 5841 5841 5840 5840
5737 5742 5746 5749 5754 5757 5761 5765 5768 5772 5775 5779 5782 5785 5788 5791 5795 5798 5800 5803 5806 5809 5811 5814 5816 5819 5822 5824 5826 5827 5829 5830 5832 5833 5833 5834 5835 5835 5835 5835 5835 5835 5835
5723 5728 5732 5737 5742 5746 5750 5754 5758 5762 5765 5769 5773 5776 5780 5783 5786 5790 5793 5795 5798 5801 5804 5806 5809 5812 5815 5817 5819 5821 5822 5824 5825 5826 5827 5828 5828 5829 5829 5830 5829 5829 5829
5709 5713 5718 5724 5729 5734 5738 5743 5747 5751 5755 5759 5764 5767 5771 5775 5778 5782 5784 5787 5790 5793 5795 5798 5801 5804 5807 5810 5811 5813 5815 5817 5818 5819 5820 5821 5822 5822 5823 5823 5823 5823 5823
5694 5699 5704 5710 5716 5721 5726 5731 5736 5740 5745 5750 5754 5758 5762 5766 5769 5773 5776 5779 5781 5784 5787 5790 5793 5796 5799 5801 5803 5805 5808 5809 5811 5812 5813 5814 5815 5815 5815 5816 5816 5816 5816
5680 5686 5691 5696 5702 5708 5713 5719 5724 5729 5734 5739 5744 5748 5753 5757 5760 5764 5767 5770 5773 5775 5778 5782 5785 5788 5790 5793 5795 5797 5799 5801 5803 5804 5805 5806 5807 5807 5808 5808 5808 5808 5808
5667 5672 5677 5683 5689 5695 5700 5706 5712 5718 5724 5729 5734 5739 5743 5747 5751 5754 5757 5761 5764 5767 5770 5773 5776 5779 5781 5784 5786 5789 5791 5793 5794 5796 5797 5798 5799 5799 5800 5800 5800 5800 5800
5653 5658 5664 5670 5676 5682 5688 5695 5701 5707 5713 5718 5724 5729 5733 5738 5741 5745 5748 5751 5755 5758 5761 5764 5766 5769 5772 5774 5777 5780 5782 5784 5786 5787 5788 5789 5790 5790 5791 5791 5791 5792 5792
5642 5647 5652 5658 5664 5671 5677 5684 5690 5696 5702 5708 5713 5719 5724 5728 5732 5735 5739 5742 5746 5749 5752 5754 5757 5760 5762 5765 5768 5770 5772 5775 5776 5777 5778 5779 5780 5781 5782 5782 5783 5783 5783
5633 5637 5642 5648 5654 5661 5667 5673 5680 5686 5692 5698 5704 5709 5714 5718 5722 5726 5729 5733 5736 5740 5743 5746 5748 5750 5753 5756 5758 5760 5763 5765 5767 5768 5769 5770 5771 5772 5772 5773 5773 5773 5774
5627 5630 5635 5640 5646 5652 5658 5665 5671 5677 5684 5689 5694 5699 5704 5709 5713 5717 5720 5723 5727 5730 5733 5736 5738 5741 5743 5745 5748 5750 5753 5755 5756 5758 5760 5760 5761 5762 5763 5764 5764 5764 5764
5623 5626 5630 5635 5640 5645 5651 5657 5663 5669 5675 5680 5685 5690 5695 5700 5704 5707 5711 5714 5717 5720 5723 5726 5728 5731 5733 5736 5738 5740 5742 5744 5746 5747 5749 5750 5751 5752 5753 5754 5754 5755 5754
5621 5624 5628 5632 5636 5641 5646 5651 5657 5662 5667 5672 5677 5682 5686 5691 5695 5698 5701 5704 5708 5710 5713 5716 5718 5721 5723 5725 5727 5729 5731 5733 5736 5737 5738 5739 5740 5742 5742 5743 5744 5744 5744
Wind_Speed
24 23 23 23 23 23 24 24 23 23 22 21 20 19 17 16 14 13 12 11 10 9 8 8 8 8 7 7 7 6 6 6 5 6 6 6 7 7 8 8 8 9 10
26 25 24 24 24 24 25 25 25 25 24 23 23 22 20 19 17 16 14 13 12 11 10 9 9 9 9 8 8 7 7 6 6 7 7 7 8 8 9 9 9 9 10
27 27 26 26 26 26 26 26 26 26 26 26 25 24 23 22 21 19 17 16 14 13 12 11 11 11 10 10 9 9 8 7 7 8 8 8 8 9 9 9 10 10 10
29 29 28 27 27 28 28 28 27 28 28 28 28 27 26 24 23 22 21 19 17 16 14 13 12 12 12 11 10 10 9 9 9 9 9 9 10 10 10 10 10 11 11
32 31 30 30 29 29 29 30 30 29 29 29 29 29 29 27 26 25 24 22 20 19 17 16 15 14 13 13 12 11 11 10 10 10 10 10 11 11 11 11 12 12 12
35 34 33 32 32 31 31 31 32 32 31 31 31 31 31 30 28 27 26 25 23 21 20 18 17 16 15 14 13 13 12 12 11 11 12 12 12 12 12 13 13 13 13
38 37 36 35 34 33 33 33 33 33 33 33 33 33 33 32 31 30 29 27 26 24 22 21 19 18 17 16 15 14 14 13 13 13 13 13 13 13 13 14 14 14 14
41 40 39 38 37 36 35 35 35 35 35 35 35 35 34 34 34 33 31 30 28 27 25 23 22 21 20 18 17 16 16 15 15 15 15 15 15 15 15 15 15 15 16
43 43 42 41 40 39 38 37 36 36 37 37 37 37 36 35 35 35 34 32 31 29 28 26 24 23 22 21 20 19 18 17 17 16 16 16 16 16 16 17 17 17 17
46 45 44 43 42 41 40 39 38 38 37 38 39 38 38 37 37 37 36 34 33 31 30 29 27 25 24 23 22 21 20 19 19 18 18 18 18 18 18 18 18 19 19
49 48 47 45 44 43 41 40 39 39 39 39 39 40 40 39 38 37 37 37 35 34 32 31 29 28 26 25 24 23 22 22 21 21 20 20 20 20 20 20 20 20 21
52 51 50 48 46 44 43 42 42 41 40 40 40 40 40 41 40 39 38 38 37 36 34 33 31 30 28 27 26 25 24 24 23 23 23 22 22 22 22 22 22 22 23
55 54 52 51 49 47 46 45 44 44 43 42 41 41 41 41 41 40 39 39 39 38 36 35 34 32 31 29 28 28 27 26 25 25 25 25 24 24 24 24 24 24 24
57 56 55 54 52 50 49 48 47 45 45 44 43 42 42 42 41 41 41 40 40 40 38 37 36 35 33 32 31 30 29 28 27 27 27 27 27 26 26 26 26 26 26
58 58 57 56 55 54 52 50 48 47 47 45 44 44 44 43 41 41 41 41 42 41 39 39 38 37 36 34 33 32 31 30 30 29 29 29 29 28 28 28 28 28 28
60 59 59 58 57 55 54 53 50 48 47 46 45 44 44 44 43 42 42 42 43 43 42 41 40 39 38 36 35 34 33 32 31 31 31 31 31 31 30 30 30 31 31
61 60 60 59 58 57 56 55 52 50 48 48 46 44 44 44 44 44 44 43 43 44 44 44 42 41 40 38 37 36 35 34 34 33 32 32 32 32 32 32 32 32 32
61 61 60 59 59 58 57 55 53 52 51 49 47 45 44 44 44 44 44 45 44 45 46 45 44 43 42 40 39 38 38 37 36 36 35 35 34 34 34 35 34 34 34
60 60 60 59 59 58 58 57 55 54 53 52 49 47 45 45 45 45 46 46 46 47 46 46 45 44 43 43 42 41 40 40 39 38 38 37 37 36 36 36 36 36 36
57 58 59 58 58 58 58 57 56 55 55 54 51 49 47 47 47 46 47 48 49 48 47 47 46 46 45 45 44 43 42 42 42 41 40 40 39 39 39 39 38 38 39
52 54 56 57 57 57 57 57 55 55 55 54 53 51 51 50 49 47 48 48 48 48 47 47 49 48 47 47 46 44 43 43 42 41 41 40 40 41 41 40 39 40 40
44 47 50 52 54 54 55 54 55 54 54 54 54 53 52 51 50 48 47 48 48 47 47 48 49 48 47 47 46 45 44 44 43 43 43 42 42 41 41 40 40 40 40
37 40 43 46 49 50 51 51 51 52 51 51 51 51 51 49 49 49 48 48 48 47 47 48 48 48 48 47 46 46 45 44 44 44 43 42 42 41 40 41 41 41 41
30 32 36 38 40 43 45 47 48 48 48 47 48 49 50 49 48 47 48 48 48 47 48 49 48 47 48 48 48 48 47 46 45 45 44 43 42 42 43 44 43 42 42
21 24 27 31 33 35 37 40 43 44 45 45 45 46 47 47 47 46 46 46 47 47 48 48 49 49 49 49 50 50 49 47 46 46 45 45 45 44 44 43 43 42 42
12 15 18 22 26 28 31 33 36 37 39 41 42 43 44 44 46 46 45 45 46 47 48 49 48 48 50 51 51 51 50 49 48 48 48 48 47 46 44 43 43 41 41
Wind_Direction
258 258 259 259 258 258 257 257 256 253 252 251 250 250 251 253 256 261 264 267 271 276 283 289 294 301 304 306 307 304 300 299 294 290 286 284 284 288 295 303 311 319 325
258 258 258 259 259 259 258 257 256 256 254 252 251 251 250 251 253 257 260 262 265 268 272 278 284 289 294 297 300 300 298 295 292 288 284 281 282 285 291 298 304 312 318
258 259 259 259 259 259 259 258 256 255 255 254 252 251 250 250 251 253 256 259 261 263 266 270 275 281 285 288 292 294 295 291 288 286 283 281 281 284 288 293 299 305 311
257 258 258 258 258 259 259 259 258 257 255 254 253 252 251 250 250 251 253 256 258 259 261 264 268 273 277 281 284 287 289 287 284 283 282 281 281 283 285 288 293 299 305
256 257 257 258 258 258 258 258 258 258 256 254 253 252 251 250 250 250 251 253 255 257 259 261 263 267 271 274 278 280 282 283 281 280 279 278 279 281 283 286 289 295 299
255 256 257 258 258 258 258 258 258 258 257 255 253 252 251 250 249 250 250 251 252 254 256 258 260 263 265 268 272 274 276 278 277 276 275 275 276 278 280 284 287 291 294
254 255 256 257 258 258 257 257 257 257 257 255 254 252 251 250 249 249 249 249 250 252 253 255 257 259 261 263 266 269 271 273 275 274 273 273 274 275 277 280 283 286 290
253 253 255 256 257 257 257 257 256 256 256 255 254 252 251 249 248 248 248 249 250 250 251 252 253 256 258 259 261 264 266 268 271 273 273 272 272 274 275 278 281 284 288
253 253 254 255 255 255 256 256 255 254 254 254 253 252 251 249 248 247 248 248 249 249 250 251 251 253 255 256 258 260 262 264 267 270 271 271 271 272 274 277 280 283 286
252 252 253 253 253 254 254 254 254 254 253 253 252 251 250 248 247 247 247 247 248 248 249 249 249 251 252 254 255 257 259 262 264 266 269 270 270 271 274 276 278 281 284
251 251 251 250 251 251 251 251 251 251 251 251 251 250 249 248 247 247 246 246 247 247 247 248 248 249 250 251 253 255 258 260 262 264 266 268 269 270 272 275 277 279 282
250 250 250 250 249 248 248 249 250 249 249 250 250 249 249 248 247 246 246 246 246 247 247 247 247 248 249 249 251 253 256 258 260 262 264 266 268 270 272 274 276 278 281
250 249 248 248 247 247 246 247 248 248 248 248 248 248 248 248 247 246 246 246 246 247 246 246 246 246 248 248 250 252 254 257 259 261 263 265 267 269 271 273 275 278 280
249 249 248 247 246 245 245 245 246 246 246 246 247 247 247 247 246 245 244 245 246 246 246 246 246 246 247 248 250 251 253 255 258 259 261 264 266 268 270 272 275 277 279
249 248 247 246 245 244 245 244 244 244 244 244 245 245 245 245 245 245 244 244 245 246 246 246 246 246 248 249 250 252 254 255 257 259 260 263 265 267 270 271 274 276 278
249 247 246 244 243 243 243 243 243 242 241 242 244 243 243 243 243 243 243 244 245 246 246 247 247 247 248 249 251 252 254 255 256 258 260 262 264 266 269 271 273 274 276
249 247 245 243 242 241 241 241 240 240 240 240 240 241 241 242 241 242 242 243 244 245 246 247 247 248 249 250 251 251 253 254 256 258 260 262 264 265 268 271 273 274 275
248 247 245 243 241 240 239 239 238 237 239 239 237 238 239 241 241 241 242 243 245 245 246 247 247 248 249 250 251 252 253 255 257 258 259 261 263 265 267 270 271 272 274
249 247 245 243 241 240 239 238 237 237 238 238 238 237 238 241 242 243 242 243 245 245 246 247 248 248 249 251 252 253 254 255 256 258 259 261 263 265 266 268 269 271 272
249 247 245 243 241 240 238 238 238 238 237 238 238 237 237 239 241 242 242 244 245 245 245 247 249 250 251 252 252 253 255 257 257 259 261 262 263 264 266 267 268 269 272
248 246 243 242 241 240 238 238 238 238 237 238 238 238 238 238 238 240 242 243 244 245 246 247 249 250 252 252 254 256 257 258 260 261 261 261 262 263 265 267 268 269 272
246 245 242 241 240 239 238 238 238 238 238 238 239 238 238 238 238 239 241 242 243 244 246 248 250 251 253 253 255 257 258 259 261 261 261 262 263 264 265 267 269 270 271
244 242 240 240 239 239 238 237 237 238 238 238 238 237 237 237 238 240 240 241 242 244 246 249 252 252 253 254 255 256 257 259 261 262 262 262 263 264 265 266 268 270 272
242 239 238 237 237 237 237 237 237 236 236 236 236 235 235 236 238 242 243 243 243 243 245 248 251 252 252 254 255 257 258 259 260 261 262 263 263 264 266 267 269 271 271
237 236 234 233 232 233 233 233 234 235 235 235 235 236 236 237 239 241 244 244 244 244 245 247 251 251 253 255 256 258 259 259 260 261 261 262 263 265 266 268 271 272 271
222 223 227 225 227 230 231 231 232 233 235 237 237 237 238 239 241 242 244 245 245 245 246 248 251 253 254 255 256 258 259 260 261 260 261 261 263 265 266 268 269 269 270